Regional Weather Roundup
Issued by NWS

Home | Current Version | Previous Version | Graphics & Text | Print | Product List | Glossary On
Versions: 1 2 3 4 5 6 7 8 9 10 11 12 13 14 15 16 17 18 19 20 21 22 23 24 25 26 27 28 29 30 31 32 33 34 35 36 37 38 39 40 41 42 43 44 45 46 47 48 49 50
000
ASUS43 KTOP 311059
RWRKS

WEATHER ROUNDUP FOR KANSAS
NATIONAL WEATHER SERVICE GOODLAND KS
600 AM CDT WED AUG 31 2016

NOTE:  "FAIR" INDICATES FEW OR NO CLOUDS BELOW 12,000 FEET WITH NO
SIGNIFICANT WEATHER AND/OR OBSTRUCTIONS TO VISIBILITY.

KSZ001>006-013>018-027>032-041>047-311200-
NORTHWEST KANSAS

CITY           SKY/WX    TMP DP  RH WIND       PRES   REMARKS
GOODLAND       FOG       63  63 100 SE5       30.23S VSB 1/2
HAYS           CLOUDY    68  61  77 N5        30.17S
HILL CITY      CLOUDY    65  64  97 CALM      30.19S
RUSSELL        CLOUDY    68  68 100 N9        30.15S
$$

KSZ061>065-074>080-084>089-311200-
SOUTHWEST KANSAS

CITY           SKY/WX    TMP DP  RH WIND       PRES   REMARKS
DODGE CITY     FOG       67  66  97 N5        30.18S VSB 3/4
ELKHART          N/A     65  60  84 SW2         N/A
GARDEN CITY    CLOUDY    64  63  96 CALM      30.19F FOG
GREAT BEND     CLOUDY    70  63  78 NW5       30.15S
LIBERAL        PTCLDY    68  63  83 CALM      30.19F
$$

KSZ066>073-081>083-090>101-311200-
SOUTHEAST KANSAS

CITY           SKY/WX    TMP DP  RH WIND       PRES   REMARKS
CHANUTE        CLOUDY    71  69  93 NE6       30.09S
COFFEYVILLE    CLOUDY    72  70  93 NE7       30.07F
HUTCHINSON     FOG       72  70  93 N3        30.12S VSB 1/4
NEWTON         FOG       70  70 100 E5        30.12S VSB 1/2
PARSONS        CLOUDY    72  70  93 VRB5      30.09S
WICHITA INTL   CLOUDY    71  68  90 NE5       30.11R
WICHITA JABRA  CLOUDY    69  68  96 E3        30.11S
WINFIELD       CLOUDY    71  69  93 NE5       30.11R
$$

KSZ007>012-019>026-033>040-048>060-102>105-311200-
NORTHEAST KANSAS

CITY           SKY/WX    TMP DP  RH WIND       PRES   REMARKS
CONCORDIA      CLOUDY    69  67  93 NE3       30.15S
EMPORIA        MOCLDY    68  67  96 CALM      30.10F
LAWRENCE       CLOUDY    70  70 100 CALM      30.10S
MANHATTAN      LGT RAIN  71  69  93 NE6       30.11S
OLATHE IND     LGT RAIN  70  69  97 CALM      30.11S
OLATHE EXE     LGT RAIN  70  69  97 N6        30.10F
SALINA         CLOUDY    72  70  93 N3        30.12F
TOPEKA BILLARD CLOUDY    69  68  96 CALM      30.11R
TOPEKA FORBES  CLOUDY    71  69  93 E3        30.11R
$$




USA.gov is the U.S. government's official web portal to all federal, state and local government web resources and services.